H1 CPF 2 NER 2025 9 13 9 256 01 glonass138 H2 1805301 9138 43508 2025 9 13 0 0 0 2025 9 16 23 45 0 900 1 1 0 0 0 1 H9 10 0 60931 0.00000 0 2368091.511 -25017039.222 -4296973.739 10 0 60931 900.00000 0 2197391.719 -24289067.800 -7425582.579 10 0 60931 1800.00000 0 2114350.301 -23175648.738 -10409695.219 10 0 60931 2700.00000 0 2168811.434 -21708520.339 -13191258.270 10 0 60931 3600.00000 0 2403607.567 -19930894.962 -15716178.806 10 0 60931 4500.00000 0 2852515.072 -17895739.390 -17935380.391 10 0 60931 5400.00000 0 3538600.181 -15663663.552 -19805758.547 10 0 60931 6300.00000 0 4473025.786 -13300506.575 -21291017.077 10 0 60931 7200.00000 0 5654369.973 -10874721.701 -22362369.227 10 0 60931 8100.00000 0 7068485.344 -8454669.594 -22999090.632 10 0 60931 9000.00000 0 8688905.356 -6105932.950 -23188914.063 10 0 60931 9900.00000 0 10477780.819 -3888764.012 -22928259.118 10 0 60931 10800.00000 0 12387307.575 -1855770.537 -22222293.225 10 0 60931 11700.00000 0 14361585.864 -49935.463 -21084823.479 10 0 60931 12600.00000 0 16338833.949 1496948.652 -19538021.957 10 0 60931 13500.00000 0 18253863.860 2765366.865 -17611990.197 10 0 60931 14400.00000 0 20040716.289 3748647.195 -15344171.435 10 0 60931 15300.00000 0 21635344.961 4452982.286 -12778622.016 10 0 60931 16200.00000 0 22978238.773 4896908.271 -9965155.969 10 0 60931 17100.00000 0 24016872.532 5110264.271 -6958379.156 10 0 60931 18000.00000 0 24707884.106 5132677.606 -3816631.519 10 0 60931 18900.00000 0 25018887.227 5011639.557 -600857.773 10 0 60931 19800.00000 0 24929844.249 4800253.546 2626571.742 10 0 60931 20700.00000 0 24433941.492 4554751.292 5803067.277 10 0 60931 21600.00000 0 23537930.521 4331882.109 8867029.669 10 0 60931 22500.00000 0 22261920.952 4186285.773 11759040.840 10 0 60931 23400.00000 0 20638633.211 4167959.995 14423011.826 10 0 60931 24300.00000 0 18712142.131 4319929.496 16807266.395 10 0 60931 25200.00000 0 16536163.347 4676215.203 18865539.583 10 0 60931 26100.00000 0 14171953.409 5260189.503 20557872.164 10 0 60931 27000.00000 0 11685910.419 6083387.344 21851384.194 10 0 60931 27900.00000 0 9146974.272 7144824.057 22720912.989 10 0 60931 28800.00000 0 6623933.864 8430849.631 23149503.475 10 0 60931 29700.00000 0 4182752.372 9915546.928 23128741.510 10 0 60931 30600.00000 0 1884020.949 11561658.735 22658923.606 10 0 60931 31500.00000 0 -219354.000 13322006.423 21749059.364 10 0 60931 32400.00000 0 -2084134.399 15141342.513 20416705.986 10 0 60931 33300.00000 0 -3678322.911 16958561.015 18687637.191 10 0 60931 34200.00000 0 -4982258.989 18709174.243 16595352.064 10 0 60931 35100.00000 0 -5989193.167 20327953.125 14180432.351 10 0 60931 36000.00000 0 -6705315.926 21751620.787 11489759.821 10 0 60931 36900.00000 0 -7149240.263 22921486.272 8575608.217 10 0 60931 37800.00000 0 -7350960.243 23785907.387 5494627.112 10 0 60931 38700.00000 0 -7350330.005 24302478.328 2306737.337 10 0 60931 39600.00000 0 -7195128.241 24439849.102 -926040.111 10 0 60931 40500.00000 0 -6938790.932 24179099.081 -4140798.226 10 0 60931 41400.00000 0 -6637909.448 23514605.898 -7274976.710 10 0 60931 42300.00000 0 -6349601.200 22454372.276 -10267588.128 10 0 60931 43200.00000 0 -6128865.507 21019796.527 -13060412.581 10 0 60931 44100.00000 0 -6026037.904 19244896.078 -15599136.749 10 0 60931 45000.00000 0 -6084451.734 17175016.709 -17834414.366 10 0 60931 45900.00000 0 -6338406.859 14865081.855 -19722827.114 10 0 60931 46800.00000 0 -6811531.965 12377455.667 -21227727.203 10 0 60931 47700.00000 0 -7515610.011 9779509.556 -22319945.493 10 0 60931 48600.00000 0 -8449916.587 7140994.111 -22978351.943 10 0 60931 49500.00000 0 -9601099.090 4531325.954 -23190258.252 10 0 60931 50400.00000 0 -10943601.824 2016902.322 -22951655.684 10 0 60931 51300.00000 0 -12440619.168 -341445.506 -22267284.296 10 0 60931 52200.00000 0 -14045536.900 -2490754.956 -21150532.951 10 0 60931 53100.00000 0 -15703801.368 -4387896.574 -19623172.632 10 0 60931 54000.00000 0 -17355138.437 -6001119.904 -17714928.583 10 0 60931 54900.00000 0 -18936029.593 -7311118.178 -15462899.761 10 0 60931 55800.00000 0 -20382341.853 -8311569.223 -12910836.854 10 0 60931 56700.00000 0 -21632001.722 -9009131.826 -10108292.771 10 0 60931 57600.00000 0 -22627601.522 -9422899.424 -7109661.829 10 0 60931 58500.00000 0 -23318829.179 -9583335.558 -3973126.123 10 0 60931 59400.00000 0 -23664619.813 -9530737.136 -759529.283 10 0 60931 60300.00000 0 -23634939.050 -9313291.150 2468800.698 10 0 60931 61200.00000 0 -23212123.238 -8984807.491 5649256.864 10 0 60931 62100.00000 0 -22391720.257 -8602223.941 8720163.610 10 0 60931 63000.00000 0 -21182795.386 -8222988.872 11621968.665 10 0 60931 63900.00000 0 -19607689.009 -7902432.224 14298393.720 10 0 60931 64800.00000 0 -17701235.714 -7691235.735 16697521.691 10 0 60931 65700.00000 0 -15509476.719 -7633109.086 18772799.889 10 0 60931 66600.00000 0 -13087918.549 -7762770.045 20483940.034 10 0 60931 67500.00000 0 -10499409.600 -8104313.876 21797698.093 10 0 60931 68400.00000 0 -7811721.994 -8670041.078 22688519.253 10 0 60931 69300.00000 0 -5094938.256 -9459793.437 23139035.791 10 0 60931 70200.00000 0 -2418750.387 -10460827.229 23140408.317 10 0 60931 71100.00000 0 150217.491 -11648230.122 22692503.674 10 0 60931 72000.00000 0 2550952.548 -12985865.623 21803905.680 10 0 60931 72900.00000 0 4730357.794 -14427806.935 20491757.874 10 0 60931 73800.00000 0 6645222.566 -15920201.477 18781440.507 10 0 60931 74700.00000 0 8263777.296 -17403489.040 16706087.077 10 0 60931 75600.00000 0 9566768.151 -18814881.443 14305948.839 10 0 60931 76500.00000 0 10548006.905 -20091000.051 11627618.712 10 0 60931 77400.00000 0 11214373.367 -21170560.412 8723129.005 10 0 60931 78300.00000 0 11585270.656 -21996990.731 5648940.120 10 0 60931 79200.00000 0 11691556.793 -22520873.269 2464839.817 10 0 60931 80100.00000 0 11573998.343 -22702104.782 -767225.160 10 0 60931 81000.00000 0 11281312.303 -22511683.814 -3984361.738 10 0 60931 81900.00000 0 10867880.065 -21933048.315 -7123962.936 10 0 60931 82800.00000 0 10391231.408 -20962906.095 -10124934.978 10 0 60931 83700.00000 0 9909406.235 -19611522.285 -12928894.166 10 0 60931 84600.00000 0 9478306.977 -17902451.035 -15481309.244 10 0 60931 85500.00000 0 9149154.796 -15871722.399 -17732566.293 10 0 60932 0.00000 0 8966158.041 -13566518.645 -19638934.846 10 0 60932 900.00000 0 8964492.043 -11043394.240 -21163417.337 10 0 60932 1800.00000 0 9168676.097 -8366117.268 -22276463.116 10 0 60932 2700.00000 0 9591415.792 -5603218.452 -22956537.095 10 0 60932 3600.00000 0 10232959.631 -2825352.971 -23190530.096 10 0 60932 4500.00000 0 11080996.641 -102583.531 -22974004.838 10 0 60932 5400.00000 0 12111098.980 2498302.593 -22311273.425 10 0 60932 6300.00000 0 13287690.705 4916331.850 -21215305.583 10 0 60932 7200.00000 0 14565501.808 7098633.597 -19707469.981 10 0 60932 8100.00000 0 15891446.472 9002386.382 -17817114.074 10 0 60932 9000.00000 0 17206846.751 10596341.937 -15580990.755 10 0 60932 9900.00000 0 18449908.569 11861865.082 -13042542.984 10 0 60932 10800.00000 0 19558346.314 12793447.920 -10251060.164 10 0 60932 11700.00000 0 20472046.155 13398678.569 -7260722.395 10 0 60932 12600.00000 0 21135656.468 13697667.319 -4129550.980 10 0 60932 13500.00000 0 21500996.736 13721955.712 -918285.320 10 0 60932 14400.00000 0 21529183.851 13512955.516 2310792.210 10 0 60932 15300.00000 0 21192386.418 13119984.188 5495060.715 10 0 60932 16200.00000 0 20475133.201 12597980.171 8572771.338 10 0 60932 17100.00000 0 19375120.424 12004994.667 11484240.613 10 0 60932 18000.00000 0 17903483.513 11399565.815 14173003.627 10 0 60932 18900.00000 0 16084521.193 10838085.945 16586904.876 10 0 60932 19800.00000 0 13954882.567 10372272.803 18679106.049 10 0 60932 20700.00000 0 11562250.129 10046851.144 20408991.541 10 0 60932 21600.00000 0 8963572.496 9897542.278 21742954.598 10 0 60932 22500.00000 0 6222919.212 9949446.218 22655049.251 10 0 60932 23400.00000 0 3409045.642 10215884.744 23127495.672 10 0 60932 24300.00000 0 592767.887 10697754.503 23151029.318 10 0 60932 25200.00000 0 -2155744.449 11383418.083 22725086.989 10 0 60932 26100.00000 0 -4769646.245 12249138.582 21857825.817 10 0 60932 27000.00000 0 -7187955.289 13260040.569 20565974.283 10 0 60932 27900.00000 0 -9357846.373 14371558.224 18874517.265 10 0 60932 28800.00000 0 -11236606.102 15531310.937 16816220.345 10 0 60932 29700.00000 0 -12793167.329 16681328.412 14431001.587 10 0 60932 30600.00000 0 -14009159.437 17760532.296 11765162.100 10 0 60932 31500.00000 0 -14879430.736 18707370.067 8870489.641 10 0 60932 32400.00000 0 -15412021.341 19462490.018 5803252.257 10 0 60932 33300.00000 0 -15627588.056 19971343.932 2623101.465 10 0 60932 34200.00000 0 -15558305.998 20186606.718 -608093.356 10 0 60932 35100.00000 0 -15246294.022 20070309.708 -3827456.046 10 0 60932 36000.00000 0 -14741631.374 19595596.243 -6972335.767 10 0 60932 36900.00000 0 -14100050.509 18748024.243 -9981535.030 10 0 60932 37800.00000 0 -13380404.812 17526359.630 -12796508.685 10 0 60932 38700.00000 0 -12642019.548 15942826.254 -15362509.599 10 0 60932 39600.00000 0 -11942039.131 14022801.136 -17629657.909 10 0 60932 40500.00000 0 -11332883.726 11803967.361 -19553912.661 10 0 60932 41400.00000 0 -10859923.219 9334959.947 -21097926.833 10 0 60932 42300.00000 0 -10559467.006 6673561.249 -22231769.294 10 0 60932 43200.00000 0 -10457154.322 3884521.305 -22933500.259 10 0 60932 44100.00000 0 -10566812.635 1037093.884 -23189589.720 10 0 60932 45000.00000 0 -10889831.619 -1797609.311 -22995171.606 10 0 60932 45900.00000 0 -11415078.443 -4549336.674 -22354129.519 10 0 60932 46800.00000 0 -12119357.290 -7151374.662 -21279013.197 10 0 60932 47700.00000 0 -12968393.223 -9543075.328 -19790787.855 10 0 60932 48600.00000 0 -13918298.612 -11672129.555 -17918421.717 10 0 60932 49500.00000 0 -14917460.236 -13496492.878 -15698319.913 10 0 60932 50400.00000 0 -15908767.608 -14985885.226 -13173615.747 10 0 60932 51300.00000 0 -16832088.875 -16122803.701 -10393333.014 10 0 60932 52200.00000 0 -17626890.286 -16903007.743 -7411435.350 10 0 60932 53100.00000 0 -18234889.174 -17335457.916 -4285780.912 10 0 60932 54000.00000 0 -18602628.957 -17441712.281 -1077002.424 10 0 60932 54900.00000 0 -18683867.868 -17254806.914 2152665.890 10 0 60932 55800.00000 0 -18441680.830 -16817668.523 5340591.817 10 0 60932 56700.00000 0 -17850185.880 -16181126.696 8424955.932 10 0 60932 57600.00000 0 -16895822.164 -15401609.837 11345946.302 10 0 60932 58500.00000 0 -15578125.257 -14538622.073 14046914.106 10 0 60932 59400.00000 0 -13909966.507 -13652107.362 16475468.020 10 0 60932 60300.00000 0 -11917245.372 -12799811.634 18584486.519 10 0 60932 61200.00000 0 -9638046.472 -12034753.760 20333028.809 10 0 60932 62100.00000 0 -7121295.234 -11402911.454 21687127.200 10 0 60932 63000.00000 0 -4424966.742 -10941219.193 22620445.951 10 0 60932 63900.00000 0 -1613920.876 -10675962.188 23114794.097 10 0 60932 64800.00000 0 1242547.675 -10621633.955 23160482.477 10 0 60932 65700.00000 0 4073344.194 -10780305.755 22756517.954 10 0 60932 66600.00000 0 6808285.280 -11141534.905 21910630.717 10 0 60932 67500.00000 0 9380775.229 -11682816.507 20639133.543 10 0 60932 68400.00000 0 11730337.100 -12370560.446 18966614.958 10 0 60932 69300.00000 0 13804893.713 -13161553.431 16925471.286 10 0 60932 70200.00000 0 15562704.003 -14004845.316 14555285.709 10 0 60932 71100.00000 0 16973874.120 -14843980.829 11902065.462 10 0 60932 72000.00000 0 18021380.194 -15619482.909 9017351.302 10 0 60932 72900.00000 0 18701560.027 -16271482.763 5957216.128 10 0 60932 73800.00000 0 19024053.249 -16742385.135 2781172.113 10 0 60932 74700.00000 0 19011192.722 -16979455.325 -448992.044 10 0 60932 75600.00000 0 18696873.396 -16937217.522 -3670420.526 10 0 60932 76500.00000 0 18124947.005 -16579561.763 -6820422.058 10 0 60932 77400.00000 0 17347211.333 -15881469.133 -9837698.735 10 0 60932 78300.00000 0 16421080.068 -14830281.016 -12663547.062 10 0 60932 79200.00000 0 15407032.784 -13426457.698 -15243006.850 10 0 60932 80100.00000 0 14365953.881 -11683793.403 -17525934.803 10 0 60932 81000.00000 0 13356473.731 -9629077.976 -19467981.482 10 0 60932 81900.00000 0 12432424.876 -7301218.922 -21031452.501 10 0 60932 82800.00000 0 11640520.820 -4749860.264 -22186037.413 10 0 60932 83700.00000 0 11018355.192 -2033555.764 -22909392.632 10 0 60932 84600.00000 0 10592805.055 782427.476 -23187567.784 10 0 60932 85500.00000 0 10378904.894 3628583.724 -23015268.028 10 0 60933 0.00000 0 10379237.679 6433818.782 -22395948.163 10 0 60933 900.00000 0 10583867.707 9128167.519 -21341737.067 10 0 60933 1800.00000 0 10970816.976 11645462.815 -19873195.427 10 0 60933 2700.00000 0 11507064.233 13925850.990 -18018910.810 10 0 60933 3600.00000 0 12150024.031 15918046.571 -15814938.835 10 0 60933 4500.00000 0 12849443.027 17581235.341 -13304101.104 10 0 60933 5400.00000 0 13549633.433 18886547.591 -10535153.436 10 0 60933 6300.00000 0 14191949.439 19818041.523 -7561840.343 10 0 60933 7200.00000 0 14717402.269 20373157.137 -4441853.905 10 0 60933 8100.00000 0 15069303.725 20562622.894 -1235717.021 10 0 60933 9000.00000 0 15195826.812 20409820.258 1994387.510 10 0 60933 9900.00000 0 15052375.523 19949633.712 5185819.476 10 0 60933 10800.00000 0 14603663.763 19226835.305 8276692.134 10 0 60933 11700.00000 0 13825415.541 18294072.113 11207068.175 10 0 60933 12600.00000 0 12705614.405 17209541.495 13920117.729 10 0 60933 13500.00000 0 11245248.829 16034451.927 16363216.228 10 0 60933 14400.00000 0 9458521.306 14830376.007 18488961.189 10 0 60933 15300.00000 0 7372511.161 13656606.581 20256088.544 10 0 60933 16200.00000 0 5026303.817 12567626.657 21630271.219 10 0 60933 17100.00000 0 2469621.252 11610798.923 22584784.865 10 0 60933 18000.00000 0 -238990.865 10824371.456 23101028.127 10 0 60933 18900.00000 0 -3034345.565 10235883.062 23168887.535 10 0 60933 19800.00000 0 -5847077.369 9861034.993 22786939.846 10 0 60933 20700.00000 0 -8606284.553 9703076.512 21962487.617 10 0 60933 21600.00000 0 -11242242.342 9752730.329 20711426.730 10 0 60933 22500.00000 0 -13689075.266 9988661.483 19057947.640 10 0 60933 23400.00000 0 -15887278.163 10378470.470 17034075.237 10 0 60933 24300.00000 0 -17785981.278 10880169.337 14679055.228 10 0 60933 25200.00000 0 -19344865.125 11444078.965 12038598.075 10 0 60933 26100.00000 0 -20535645.087 12015067.751 9163994.438 10 0 60933 27000.00000 0 -21343063.510 12535037.073 6111118.861 10 0 60933 27900.00000 0 -21765347.603 12945548.118 2939340.965 10 0 60933 28800.00000 0 -21814113.914 13190478.214 -289634.378 10 0 60933 29700.00000 0 -21513723.628 13218593.247 -3512974.738 10 0 60933 30600.00000 0 -20900116.300 12985926.041 -6667951.304 10 0 60933 31500.00000 0 -20019171.881 12457858.675 -9693168.494 10 0 60933 32400.00000 0 -18924671.057 11610819.322 -12529766.989 10 0 60933 33300.00000 0 -17675940.963 10433520.597 -15122575.811 10 0 60933 34200.00000 0 -16335286.653 8927686.055 -17421190.190 10 0 60933 35100.00000 0 -14965317.549 7108233.311 -19380953.791 10 0 60933 36000.00000 0 -13626282.226 5002905.333 -20963826.073 10 0 60933 36900.00000 0 -12373524.140 2651364.883 -22139118.059 10 0 60933 37800.00000 0 -11255165.336 103789.621 -22884082.757 10 0 60933 38700.00000 0 -10310115.107 -2580973.760 -23184349.426 10 0 60933 39600.00000 0 -9566486.526 -5337619.640 -23034194.097 10 0 60933 40500.00000 0 -9040486.297 -8096866.152 -22436641.921 10 0 60933 41400.00000 0 -8735823.293 -10788107.625 -21403400.134 10 0 60933 42300.00000 0 -8643659.332 -13342127.104 -19954623.537 10 0 60933 43200.00000 0 -8743102.957 -15693756.978 -18118517.507 10 0 60933 44100.00000 0 -9002224.355 -17784378.041 -15930786.417 10 0 60933 45000.00000 0 -9379547.757 -19564154.039 -13433938.266 10 0 60933 45900.00000 0 -9825957.818 -20993909.819 -10676458.890 10 0 60933 46800.00000 0 -10286939.191 -22046575.969 -7711871.601 10 0 60933 47700.00000 0 -10705054.597 -22708140.798 -4597700.282 10 0 60933 48600.00000 0 -11022556.751 -22978071.001 -1394355.851 10 0 60933 49500.00000 0 -11184023.879 -22869184.410 1836032.516 10 0 60933 50400.00000 0 -11138907.568 -22406981.030 5030818.860 10 0 60933 51300.00000 0 -10843885.330 -21628461.123 8128051.433 10 0 60933 52200.00000 0 -10264918.458 -20580480.399 11067669.928 10 0 60933 53100.00000 0 -9378928.032 -19317711.663 13792665.831 10 0 60933 54000.00000 0 -8175017.914 -17900298.523 16250183.714 10 0 60933 54900.00000 0 -6655192.422 -16391299.494 18392542.415 10 0 60933 55800.00000 0 -4834537.460 -14854029.414 20178156.708 10 0 60933 56700.00000 0 -2740856.108 -13349409.204 21572342.008 10 0 60933 57600.00000 0 -413772.347 -11933434.494 22547986.942 10 0 60933 58500.00000 0 2096661.404 -10654868.639 23086081.023 10 0 60933 59400.00000 0 4731796.656 -9553256.220 23176087.375 10 0 60933 60300.00000 0 7426586.632 -8657339.819 22816153.219 10 0 60933 61200.00000 0 10112059.606 -7983946.117 22013153.711 10 0 60933 62100.00000 0 12717966.408 -7537387.897 20782567.732 10 0 60933 63000.00000 0 15175493.107 -7309407.080 19148187.251 10 0 60933 63900.00000 0 17419926.745 -7279661.336 17141664.950 10 0 60933 64800.00000 0 19393163.587 -7416734.050 14801907.948 10 0 60933 65700.00000 0 21045955.390 -7679625.266 12174328.426 10 0 60933 66600.00000 0 22339799.725 -8019660.853 9309965.014 10 0 60933 67500.00000 0 23248394.989 -8382739.117 6264491.559 10 0 60933 68400.00000 0 23758598.786 -8711819.511 3097132.379 10 0 60933 69300.00000 0 23870849.159 -8949547.447 -130494.579 10 0 60933 70200.00000 0 23599030.858 -9040903.117 -3355583.617 10 0 60933 71100.00000 0 22969792.384 -8935760.937 -6515371.864 10 0 60933 72000.00000 0 22021342.973 -8591249.867 -9548369.531 10 0 60933 72900.00000 0 20801780.825 -7973813.328 -12395564.837 10 0 60933 73800.00000 0 19367023.870 -7060880.205 -15001579.165 10 0 60933 74700.00000 0 17778431.164 -5842075.109 -17315749.145 10 0 60933 75600.00000 0 16100215.964 -4319915.831 -19293114.107 10 0 60933 76500.00000 0 14396760.057 -2509967.707 -20895289.565 10 0 60933 77400.00000 0 12729942.723 -440447.781 -22091209.868 10 0 60933 78300.00000 0 11156596.643 1848705.166 -22857726.072 10 0 60933 79200.00000 0 9726197.191 4307256.208 -23180048.125 10 0 60933 80100.00000 0 8478881.347 6876536.275 -23052023.560 10 0 60933 81000.00000 0 7443878.206 9491663.268 -22476248.153 10 0 60933 81900.00000 0 6638415.508 12084030.195 -21464007.152 10 0 60933 82800.00000 0 6067146.524 14583957.262 -20035048.860 10 0 60933 83700.00000 0 5722119.735 16923398.195 -18217195.395 10 0 60933 84600.00000 0 5583291.080 19038588.954 -16045798.411 10 0 60933 85500.00000 0 5619555.854 20872529.373 -13563050.436 10 0 60934 0.00000 0 5790255.734 22377195.176 -10817165.335 10 0 60934 900.00000 0 6047096.670 23515389.803 -7861442.102 10 0 60934 1800.00000 0 6336395.957 24262157.766 -4753233.719 10 0 60934 2700.00000 0 6601563.598 24605704.040 -1552835.916 10 0 60934 3600.00000 0 6785712.781 24547779.784 1677679.151 10 0 60934 4500.00000 0 6834289.192 24103519.792 4875663.256 10 0 60934 5400.00000 0 6697608.022 23300738.907 7979103.115 10 0 60934 6300.00000 0 6333191.410 22178717.295 10927818.769 10 0 60934 7200.00000 0 5707807.419 20786525.683 13664626.214 10 0 60934 8100.00000 0 4799124.177 19180960.809 16136442.045 10 0 60934 9000.00000 0 3596908.789 17424177.393 18295309.011 10 0 60934 9900.00000 0 2103719.719 15581115.470 20099322.972 10 0 60934 10800.00000 0 335062.313 13716830.297 21513443.716 10 0 60934 11700.00000 0 -1681000.526 11893835.871 22510174.342 10 0 60934 12600.00000 0 -3904767.914 10169572.537 23070096.302 10 0 60934 13500.00000 0 -6286314.202 8594103.819 23182249.945 10 0 60934 14400.00000 0 -8767338.778 7208138.141 22844353.088 10 0 60934 15300.00000 0 -11283377.090 6041457.608 22062853.106 10 0 60934 16200.00000 0 -13766282.405 5111819.199 20852810.964 10 0 60934 17100.00000 0 -16146876.296 4424374.070 19237618.678 10 0 60934 18000.00000 0 -18357658.342 3971629.212 17248554.757 10 0 60934 18900.00000 0 -20335462.690 3733952.973 14924185.286 10 0 60934 19800.00000 0 -22023950.807 3680603.149 12309621.339 10 0 60934 20700.00000 0 -23375836.075 3771234.220 9455646.414 10 0 60934 21600.00000 0 -24354746.765 3957819.913 6417730.363 10 0 60934 22500.00000 0 -24936648.750 4186909.400 3254948.830 10 0 60934 23400.00000 0 -25110767.681 4402121.013 28829.467 10 0 60934 24300.00000 0 -24879971.421 4546766.964 -3197852.054 10 0 60934 25200.00000 0 -24260596.379 4566496.721 -6362301.987 10 0 60934 26100.00000 0 -23281725.067 4411845.733 -9402939.376 10 0 60934 27000.00000 0 -21983945.590 4040580.173 -12260602.825 10 0 60934 27900.00000 0 -20417645.836 3419737.065 -14879708.694 10 0 60934 28800.00000 0 -18640914.872 2527272.277 -17209337.315 10 0 60934 29700.00000 0 -16717140.602 1353245.655 -19204225.614 10 0 60934 30600.00000 0 -14712405.318 -99507.557 -20825646.644 10 0 60934 31500.00000 0 -12692789.025 -1815248.025 -22042159.058 10 0 60934 32400.00000 0 -10721693.818 -3765752.291 -22830212.430 10 0 60934 33300.00000 0 -8857301.222 -5911264.252 -23174597.344 10 0 60934 34200.00000 0 -7150268.391 -8201938.689 -23068732.306 10 0 60934 35100.00000 0 -5641758.548 -10579716.863 -22514782.751 10 0 60934 36000.00000 0 -4361886.748 -12980556.307 -21523610.613 10 0 60934 36900.00000 0 -3328644.388 -15336922.234 -20114556.052 10 0 60934 37800.00000 0 -2547345.761 -17580437.293 -18315056.045 10 0 60934 38700.00000 0 -2010618.049 -19644579.835 -16160107.479 10 0 60934 39600.00000 0 -1698933.503 -21467318.906 -13691585.238 10 0 60934 40500.00000 0 -1581659.926 -22993576.798 -10957428.471 10 0 60934 41400.00000 0 -1618584.007 -24177417.168 -8010710.621 10 0 60934 42300.00000 0 -1761842.392 -24983868.017 -4908611.081 10 0 60934 43200.00000 0 -1958178.308 -25390304.038 -1711308.230 10 0 60934 44100.00000 0 -2151428.101 -25387331.102 1519184.921 10 0 60934 45000.00000 0 -2285132.346 -24979136.337 4720219.971 10 0 60934 45900.00000 0 -2305161.116 -24183289.548 7829724.182 10 0 60934 46800.00000 0 -2162242.363 -23030004.506 10787400.012 10 0 60934 47700.00000 0 -1814286.522 -21560891.137 13535890.017 10 0 60934 48600.00000 0 -1228408.942 -19827250.785 16021884.821 10 0 60934 49500.00000 0 -382564.463 -17887985.607 18197152.992 10 0 60934 50400.00000 0 733275.409 -15807209.153 20019473.237 10 0 60934 51300.00000 0 2116453.153 -13651657.412 21453451.288 10 0 60934 52200.00000 0 3751493.108 -11488007.742 22471206.038 10 0 60934 53100.00000 0 5610513.568 -9380216.866 23052911.950 10 0 60934 54000.00000 0 7654167.595 -7386988.183 23187187.385 10 0 60934 54900.00000 0 9833075.045 -5559473.264 22871321.279 10 0 60934 55800.00000 0 12089687.785 -3939302.759 22111333.490 10 0 60934 56700.00000 0 14360512.021 -2557028.310 20921867.082 10 0 60934 57600.00000 0 16578596.453 -1431040.073 19325913.894 10 0 60934 58500.00000 0 18676183.564 -567004.814 17354377.780 10 0 60934 59400.00000 0 20587414.113 42152.200 15045483.046 10 0 60934 60300.00000 0 22250972.115 415720.962 12444038.597 10 0 60934 61200.00000 0 23612559.594 584158.564 9600571.389 10 0 60934 62100.00000 0 24627097.006 587563.606 6570345.502 10 0 60934 63000.00000 0 25260556.418 473738.102 3412285.734 10 0 60934 63900.00000 0 25491349.679 295919.488 187826.913 10 0 60934 64800.00000 0 25311212.485 110279.645 -3040288.166 10 0 60934 65700.00000 0 24725546.548 -26702.036 -6209237.944 10 0 60934 66600.00000 0 23753205.074 -60878.963 -9257353.475 10 0 60934 67500.00000 0 22425730.496 57022.167 -12125326.927 10 0 60934 68400.00000 0 20786076.704 369069.637 -14757372.715 10 0 60934 69300.00000 0 18886869.945 908103.678 -17102317.791 10 0 60934 70200.00000 0 16788282.034 1696108.720 -19114599.380 10 0 60934 71100.00000 0 14555605.714 2743050.577 -20755150.536 10 0 60934 72000.00000 0 12256634.375 4046228.257 -21992156.431 10 0 60934 72900.00000 0 9958956.088 5590168.208 -22801667.083 10 0 60934 73800.00000 0 7727275.130 7347065.823 -23168055.332 10 0 60934 74700.00000 0 5620872.517 9277755.995 -23084311.923 10 0 60934 75600.00000 0 3691310.792 11333172.327 -22552172.819 10 0 60934 76500.00000 0 1980477.677 13456234.299 -21582077.064 10 0 60934 77400.00000 0 519048.767 15584083.823 -20192956.637 10 0 60934 78300.00000 0 -674568.256 17650578.228 -18411862.851 10 0 60934 79200.00000 0 -1594765.647 19588936.071 -16273436.811 10 0 60934 80100.00000 0 -2248723.458 21334425.839 -13819234.276 10 0 60934 81000.00000 0 -2655855.509 22826985.806 -11096918.004 10 0 60934 81900.00000 0 -2846738.356 24013666.196 -8159333.026 10 0 60934 82800.00000 0 -2861569.581 24850792.029 -5063482.662 10 0 60934 83700.00000 0 -2748221.401 25305756.710 -1869424.893 10 0 60934 84600.00000 0 -2559972.392 25358371.666 1360889.693 10 0 60934 85500.00000 0 -2353013.565 25001715.813 4564815.954 99